Regional Weather Roundup
Issued by NWS

Home | Current Version | Previous Version | Text Only | Print | Product List | Glossary On
Versions: 1 2 3 4 5 6 7 8 9 10 11 12 13 14 15 16 17 18 19 20 21 22 23 24 25 26 27 28 29 30 31 32 33 34 35 36 37 38 39 40 41 42 43 44 45 46 47 48 49 50
014
ASUS43 KMKX 220111
RWRWI

WISCONSIN REGIONAL WEATHER ROUNDUP
NATIONAL WEATHER SERVICE MILWAUKEE/SULLIVAN WI
800 PM CDT THU MAY 21 2015

NOTE: "FAIR" INDICATES FEW OR NO CLOUDS BELOW 12,000 FEET WITH NO
SIGNIFICANT WEATHER AND/OR OBSTRUCTIONS TO VISIBILITY.

WIZ001-002-006>008-014>016-023>028-220200-
NORTHWEST WISCONSIN

CITY           SKY/WX    TMP DP  RH WIND       PRES   REMARKS
SUPERIOR ARPT  CLEAR     64  29  26 N9        30.01R
ASHLAND        CLEAR     56  44  64 CALM      30.02R
HAYWARD        CLEAR     65  27  23 N6        30.01R
SIREN          CLEAR     65  29  25 N6        30.03R
CUMBERLAND     CLEAR     61  30  31 NW9       30.01R
RICE LAKE      CLEAR     66  30  26 NW7       30.02R
CHETEK         CLEAR     65  36  33 NW6       30.01R
LADYSMITH      CLEAR     62  32  32 N7        30.02R
EAU CLAIRE     CLEAR     66  34  30 N5        29.99R
MENOMONIE      CLEAR     68  30  23 NW9G16    30.00R
NEW RICHMOND   CLEAR     66  31  27 NW10      30.03R
OSCEOLA        CLEAR     66  33  29 NW6       30.05R
$$

WIZ003>005-009-010-017-018-220200-
NORTH CENTRAL WISCONSIN

CITY           SKY/WX    TMP DP  RH WIND       PRES   REMARKS
MANITOWISH WTR CLEAR     57  28  33 NW8       30.02R
ARBOR VITAE    CLEAR     57  29  35 N5        30.02R
WOODRUFF       CLEAR     57  29  35 N5        30.02R
RHINELANDER    CLEAR     58  26  29 N5        30.02R
EAGLE RIVER    CLEAR     56  23  28 N5        30.01R
LAND O LAKES   CLEAR     56  25  29 NW6       30.02R
PHILLIPS       CLEAR     58  34  39 N5        30.00R
TOMAHAWK       CLEAR     58  27  30 N3        30.02R
MEDFORD        CLEAR     58  32  36 N7        30.00R
MERRILL        CLEAR     60  27  28 N9        30.01R
$$

WIZ029-030-035-036-043>047-220200-
CENTRAL WISCONSIN

CITY           SKY/WX    TMP DP  RH WIND       PRES   REMARKS
WAUSAU         CLEAR     62  27  26 N8        29.98R
MOSINEE        CLEAR     63  27  25 N12       29.99R
MARSHFIELD     CLEAR     64  30  27 N9        29.99R
STEVENS POINT  CLEAR     63  30  28 N13       29.98R
WAUPACA        PTCLDY    70  33  26 N7        29.95R
WAUTOMA        PTCLDY    68  37  31 NW8       29.95R
WISC RAPIDS    CLEAR     67  32  27 N15G22    29.98R
CAMP DOUGLAS   PTCLDY    66  39  37 NW8       29.96R
$$

WIZ011>013-019>022-031-037>040-048>050-220200-
NORTHEAST WISCONSIN

CITY           SKY/WX    TMP DP  RH WIND       PRES   REMARKS
ANTIGO         CLEAR     58  28  31 N10       30.00R
SHAWANO        PTCLDY    57  41  55 E8        29.99R
OCONTO         PTCLDY    54  34  47 E9G18     29.99R
STURGEON BAY   PTCLDY    52  28  40 E9        30.01S
GREEN BAY      MOCLDY    56  41  57 E10       29.98R
MANITOWOC      CLOUDY    52  34  50 NE8       30.00R
APPLETON       MOCLDY    59  37  44 E14       29.95R
CLINTONVILLE   PTCLDY    57  43  58 E9        29.98R
OSHKOSH        MOCLDY    65  41  41 N7        29.93R
$$

WIZ032>034-041-042-053>061-220200-
SOUTHWEST WISCONSIN

CITY           SKY/WX    TMP DP  RH WIND       PRES   REMARKS
LA CROSSE      CLEAR     67  43  41 NW7       29.98R
SPARTA         CLEAR     67  36  32 W6        29.98R
VIROQUA        CLEAR     65  37  35 NW6       30.00R
BOSCOBEL       CLEAR     70  34  26 NW6       29.98R
PRAIRIE DU CHI CLEAR     69  31  24 NW9       29.99R
PLATTEVILLE    CLEAR     67  43  41 W7        29.99R
$$

WIZ056-057-062-063-064-067-068-220200-
SOUTH CENTRAL WISCONSIN

CITY           SKY/WX    TMP DP  RH WIND       PRES   REMARKS
REEDSBURG      PTCLDY    67  38  33 W7        29.96R
BARABOO/DELLS  PTCLDY    66  38  35 W7        29.96R
LONE ROCK      PTCLDY    69  39  33 NW9       29.96R
MINERAL POINT  CLEAR     68  37  32 SW5       29.98S
MADISON        PTCLDY    66  43  43 SW6       29.96R
MIDDLETON      MOCLDY    68  38  34 SW10      29.97S
WATERTOWN      PTCLDY    65  38  37 SW8       29.95R
MONROE         CLEAR     64  45  48 SW9       29.99S
JANESVILLE     CLEAR     66  39  37 SW9       29.98S
$$

WIZ051-052-058>065-066-070>072-220200-
SOUTHEAST WISCONSIN

CITY           SKY/WX    TMP DP  RH WIND       PRES   REMARKS
MILWAUKEE      PTCLDY    69  34  27 W9        29.95S
WAUKESHA       PTCLDY    64  36  34 SW9       29.96S
MILWAUKEE/TIMM CLEAR     66  30  26 SW8       29.95S
RACINE         CLEAR     66  38  35 SW12      29.97S
BURLINGTON     CLEAR     63  38  39 SW12G17   29.97S
KENOSHA        CLEAR     64  40  41 SW13      29.98R
FOND DU LAC    MOCLDY    64  39  39 SW8       29.93S
SHEBOYGAN      LGT RAIN  51  40  65 NE18      29.96R
WEST BEND      RAIN      64  37  36 W15G24    29.97R
JUNEAU         MOCLDY    67  38  34 W7        29.95S
$$

LSZ147-162-220200-
LAKE SUPERIOR

STATION/POSITION TIME  TEMP    WIND        PRES    WAVE
                       AIR SEA DIR/SP/G            HT/PER
                 (UTC) (F)     (DEG/KT/KT) (MB)    (FT/S)
W MID LAKE BUOY  0050   44 37  220/  8/  8   N/A     0
DEVILS ISLAND    0100   59        CALM       N/A
PORT WING        0000   57      60/  5/  6   N/A
SAXON HARBOR     0040   61        CALM       N/A
$$

LMZ867-665-643>646-220200-
LAKE MICHIGAN

STATION/POSITION TIME  TEMP    WIND        PRES    WAVE
                       AIR SEA DIR/SP/G            HT/PER
                 (UTC) (F)     (DEG/KT/KT) (MB)    (FT/S)
CHAMBERS ISLAND  0000   54      50/ 12/ 17   N/A
N MID LAKE BUOY  0050   42 36   60/  4/  4   N/A     1/ 3
NORTHPORT PIER   0000   55      30/ 11/ 13   N/A
SISTER BAY       0002   57      30/  9/ 14   N/A
KEWAUNEE LAKESHO 0000           30/ 11/ 13   N/A
SHEBOYGAN LAKESH 0100          360/ 24/ 32   N/A
PORT WASHINGTON  0100   65      30/ 11/ 24   N/A
ATWATER BUOY     0000   65 44  240/ 10/ 14   N/A
MILWAUKEE LAKESH 0015   71     260/ 13/ 22   N/A
S MID LAKE BUOY  0050   45 38  190/ 14/ 14   N/A
KENOSHA   LAKESH 0100   67     230/ 12/ 19   N/A
$$

TC  - TEMPERATURE IN CELSIUS
VSB - VISIBILITY IN STATUTE MILES
WCI - WIND CHILL INDEX
HX  - HEAT INDEX




USA.gov is the U.S. government's official web portal to all federal, state and local government web resources and services.